Angaben ohne Gewhr
Wetterdaten: aktuell Donnerstag, 02.04.2020 20:05
Datum Zeit Temp. A. Feuchte A. Luftdruck Regen Wind Richtung Richtung Sonnenschein UV Solar Taupunkt Windchill Windben
02.04.2020 20:05 9,4 C 32 % 1010,6 hPa 0,0 l/m 0,4 km/h (0 Bft) NW 311 0 min 0,0 UV-I 0 W/m -6,4 C 9,4 C 1,6 km/h (1 Bft)
02.04.2020 20:00 9,6 C 31 % 1010,5 hPa 0,0 l/m 0,4 km/h (0 Bft) W-NW 303 0 min 0,0 UV-I 2 W/m -6,7 C 9,6 C 1,6 km/h (1 Bft)
02.04.2020 19:55 9,7 C 31 % 1010,5 hPa 0,0 l/m 0,3 km/h (0 Bft) W-NW 299 0 min 0,0 UV-I 6 W/m -6,6 C 9,7 C 1,6 km/h (1 Bft)
02.04.2020 19:50 9,9 C 32 % 1010,5 hPa 0,0 l/m 1,7 km/h (1 Bft) NW 309 0 min 0,0 UV-I 8 W/m -6,0 C 9,9 C 4,8 km/h (1 Bft)
02.04.2020 19:45 10,2 C 32 % 1010,4 hPa 0,0 l/m 1,4 km/h (1 Bft) NW 305 0 min 0,0 UV-I 11 W/m -5,7 C 10,2 C 4,8 km/h (1 Bft)
02.04.2020 19:40 10,4 C 32 % 1010,4 hPa 0,0 l/m 1,2 km/h (1 Bft) NW 317 0 min 0,0 UV-I 14 W/m -5,6 C 10,4 C 9,7 km/h (2 Bft)
02.04.2020 19:35 10,7 C 34 % 1010,4 hPa 0,0 l/m 1,1 km/h (1 Bft) NW 304 0 min 0,0 UV-I 19 W/m -4,5 C 10,7 C 3,2 km/h (1 Bft)
02.04.2020 19:30 10,9 C 34 % 1010,4 hPa 0,0 l/m 0,8 km/h (0 Bft) W-NW 294 0 min 0,0 UV-I 23 W/m -4,3 C 10,9 C 3,2 km/h (1 Bft)
02.04.2020 19:25 10,9 C 35 % 1010,3 hPa 0,0 l/m 2,3 km/h (1 Bft) W-NW 294 0 min 0,0 UV-I 26 W/m -3,9 C 10,9 C 6,4 km/h (2 Bft)
02.04.2020 19:20 10,9 C 36 % 1010,4 hPa 0,0 l/m 1,4 km/h (1 Bft) N-NW 329 0 min 0,0 UV-I 31 W/m -3,6 C 10,9 C 6,4 km/h (2 Bft)
02.04.2020 19:15 10,9 C 36 % 1010,4 hPa 0,0 l/m 1,7 km/h (1 Bft) W-NW 296 0 min 0,0 UV-I 35 W/m -3,6 C 10,9 C 6,4 km/h (2 Bft)
02.04.2020 19:10 10,9 C 36 % 1010,4 hPa 0,0 l/m 2,0 km/h (1 Bft) NW 310 0 min 0,0 UV-I 39 W/m -3,6 C 10,9 C 9,7 km/h (2 Bft)
02.04.2020 19:05 11,0 C 36 % 1010,4 hPa 0,0 l/m 1,4 km/h (1 Bft) NW 316 0 min 0,0 UV-I 40 W/m -3,5 C 11,0 C 6,4 km/h (2 Bft)
02.04.2020 19:00 11,1 C 36 % 1010,3 hPa 0,0 l/m 2,2 km/h (1 Bft) N-NW 328 0 min 0,0 UV-I 43 W/m -3,4 C 11,1 C 11,3 km/h (2 Bft)
02.04.2020 18:55 11,2 C 36 % 1010,3 hPa 0,0 l/m 1,9 km/h (1 Bft) NW 311 0 min 0,0 UV-I 47 W/m -3,3 C 11,2 C 8,0 km/h (2 Bft)
02.04.2020 18:50 11,3 C 36 % 1010,4 hPa 0,0 l/m 2,7 km/h (1 Bft) N 355 0 min 0,0 UV-I 47 W/m -3,2 C 11,3 C 11,3 km/h (2 Bft)
02.04.2020 18:45 11,3 C 36 % 1010,3 hPa 0,0 l/m 1,6 km/h (1 Bft) NW 317 0 min 0,0 UV-I 58 W/m -3,2 C 11,3 C 6,4 km/h (2 Bft)
02.04.2020 18:40 11,4 C 36 % 1010,3 hPa 0,0 l/m 2,2 km/h (1 Bft) W-NW 288 0 min 0,0 UV-I 57 W/m -3,1 C 11,4 C 9,7 km/h (2 Bft)
02.04.2020 18:35 11,5 C 36 % 1010,3 hPa 0,0 l/m 3,3 km/h (1 Bft) N-NW 327 0 min 0,0 UV-I 50 W/m -3,0 C 11,5 C 14,5 km/h (3 Bft)
02.04.2020 18:30 11,7 C 36 % 1010,3 hPa 0,0 l/m 3,5 km/h (1 Bft) W-SW 257 0 min 0,0 UV-I 54 W/m -2,9 C 11,7 C 14,5 km/h (3 Bft)
02.04.2020 18:25 11,9 C 36 % 1010,3 hPa 0,0 l/m 2,8 km/h (1 Bft) W 260 0 min 0,0 UV-I 58 W/m -2,7 C 11,9 C 12,9 km/h (3 Bft)
02.04.2020 18:20 12,1 C 35 % 1010,3 hPa 0,0 l/m 1,8 km/h (1 Bft) NW 304 5 min 0,0 UV-I 136 W/m -2,9 C 12,1 C 11,3 km/h (2 Bft)
02.04.2020 18:15 12,4 C 36 % 1010,3 hPa 0,0 l/m 2,9 km/h (1 Bft) N-NW 327 5 min 0,0 UV-I 217 W/m -2,2 C 12,4 C 11,3 km/h (2 Bft)
02.04.2020 18:10 12,9 C 34 % 1010,3 hPa 0,0 l/m 2,9 km/h (1 Bft) W-NW 290 5 min 0,0 UV-I 235 W/m -2,6 C 12,9 C 16,1 km/h (3 Bft)
02.04.2020 18:05 12,9 C 36 % 1010,3 hPa 0,0 l/m 1,4 km/h (1 Bft) N 350 5 min 0,0 UV-I 254 W/m -1,8 C 12,9 C 4,8 km/h (1 Bft)
_ Min-Zeit 07:50 19:55 18:00 - 06:00 - - - - - 22:55 07:40 00:10
Minimum _ 1,4 C 31 % 1010,3 hPa - 0,3 km/h (0 Bft) - - - - - -7,2 C 1,5 C 1,6 km/h (1 Bft)
_ Max-Zeit 15:35 07:45 21:00 21:00 12:50 - - 08:25 13:15 13:30 14:35 15:40 14:50
Maximum _ 14,1 C 63 % 1016,5 hPa 0,0 l/m 8,6 km/h
W-NW (2 Bft)
- - 5 min 4,3 UV-I 766 W/m -0,4 C 14,0 C 20,9 km/h
W (4 Bft)
Durchschnitt _ 6,9 C 46 % 1013,6 hPa #0,0 l/m 2,0 km/h (1 Bft) S-SO - #10:00 h 2,6 UV-I 422 W/m -4,3 C 6,9 C 7,0 km/h (2 Bft)
2020 Wolfgang Maurer - VantagePro2Plus